DateTime,DeltaTime,Roll,TargetAngle,Position,Power
2022-05-23 14:15:26.974,0,-0.0199999999999999,-1.85,3,27.42
2022-05-23 14:15:27.088,0.114000588655472,0.04,-1.52,2,25.07
2022-05-23 14:15:27.202,0.228001177310944,0.11,-1.23,2,19.45
2022-05-23 14:15:27.317,0.342997536063194,0.16,-1.14,3,21
2022-05-23 14:15:27.433,0.45899972319603,0.16,-1.33,3,27.34
2022-05-23 14:15:27.547,0.573000311851501,0.13,-1.65,3,27.75
2022-05-23 14:15:27.662,0.687996670603752,0.09,-1.8,3,28.52
2022-05-23 14:15:27.777,0.802993029356003,0.04,-2.01,2,29.84
2022-05-23 14:15:27.891,0.916993618011475,0,-2.11,3,25.51
2022-05-23 14:15:28.006,1.03200003504753,-0.07,-2.45,2,33.76
2022-05-23 14:15:28.122,1.14799216389656,-0.13,-2.68,2,28.64
2022-05-23 14:15:28.235,1.26099698245525,-0.18,-2.79,2,30.67
2022-05-23 14:15:28.350,1.3759933412075,-0.18,-2.55,2,29.74
2022-05-23 14:15:28.465,1.49099975824356,-0.14,-2.21,2,28.78
2022-05-23 14:15:28.580,1.60599611699581,-0.11,-2.16,2,29.37
2022-05-23 14:15:28.695,1.72099247574806,-0.1,-2.25,2,30.25
2022-05-23 14:15:28.809,1.83499306440353,-0.08,-2.12,2,29.86
2022-05-23 14:15:28.924,1.94999948143959,-0.0499999999999999,-1.94,2,29.53
2022-05-23 14:15:29.038,2.06400007009506,0.03,-1.49,3,27.87
2022-05-23 14:15:29.153,2.17899642884731,0.11,-1.18,3,32.22
2022-05-23 14:15:29.267,2.29299701750278,0.16,-1.15,2,31.58
2022-05-23 14:15:29.382,2.40799337625504,0.15,-1.46,2,28.52
2022-05-23 14:15:29.497,2.52299979329109,0.11,-1.72,3,31.05
2022-05-23 14:15:29.611,2.63700038194656,0.0700000000000001,-1.86,3,36.74
2022-05-23 14:15:29.726,2.75199674069881,0.04,-1.89,3,35.83
2022-05-23 14:15:29.841,2.86699309945107,0.01,-2.01,2,36.86
2022-05-23 14:15:29.956,2.98199951648712,-0.0299999999999999,-2.23,2,33.26
2022-05-23 14:15:30.070,3.09600010514259,-0.09,-2.46,2,35.8
2022-05-23 14:15:30.185,3.21099646389484,-0.12,-2.48,3,36.03
2022-05-23 14:15:30.300,3.32599282264709,-0.12,-2.37,3,40.88
2022-05-23 14:15:30.415,3.44099923968315,-0.1,-2.15,2,39.08
2022-05-23 14:15:30.529,3.55499982833862,-0.07,-2.02,2,34.18
2022-05-23 14:15:30.644,3.66999618709087,-0.0599999999999999,-2.09,3,36.4
2022-05-23 14:15:30.758,3.78399677574635,-0.0399999999999999,-2.01,3,41.29
2022-05-23 14:15:30.873,3.8989931344986,0,-1.7,3,39
2022-05-23 14:15:30.988,4.01399955153465,0.0700000000000001,-1.42,3,38.4
2022-05-23 14:15:31.098,4.1239969432354,0.12,-1.26,2,38.39
2022-05-23 14:15:31.212,4.23799753189087,0.16,-1.17,2,33.53
2022-05-23 14:15:31.328,4.3539997190237,0.16,-1.39,2,36.35
2022-05-23 14:15:31.442,4.46800030767918,0.13,-1.59,2,37.38
2022-05-23 14:15:31.557,4.58299666643143,0.11,-1.64,3,37.7
2022-05-23 14:15:31.672,4.69799302518368,0.09,-1.71,2,43.3
2022-05-23 14:15:31.785,4.81099784374237,0.04,-1.97,2,38.64
2022-05-23 14:15:31.901,4.92700003087521,0.01,-2.02,3,40.25
2022-05-23 14:15:32.017,5.04299215972424,-0.0399999999999999,-2.29,2,46.85
2022-05-23 14:15:32.130,5.15599697828293,-0.07,-2.31,2,14.62
2022-05-23 14:15:32.245,5.27099333703518,-0.0599999999999999,-2.11,2,15.32
2022-05-23 14:15:32.360,5.38599975407124,-0.0299999999999999,-1.92,3,15
2022-05-23 14:15:32.475,5.50099611282349,-0.01,-1.89,2,20.44
2022-05-23 14:15:32.589,5.61499670147896,-0.0199999999999999,-2.01,2,15.22
2022-05-23 14:15:32.704,5.72999306023121,-0.0199999999999999,-1.97,3,16.56
2022-05-23 14:15:32.818,5.84399364888668,0.02,-1.7,3,20.62
2022-05-23 14:15:32.933,5.95900006592274,0.0600000000000001,-1.54,3,19.29
2022-05-23 14:15:33.049,6.07499219477177,0.11,-1.35,2,18.99
2022-05-23 14:15:33.163,6.18899278342724,0.12,-1.41,2,14.89
2022-05-23 14:15:33.277,6.30299337208271,0.1,-1.66,3,17.72
2022-05-23 14:15:33.392,6.41799978911877,0.0700000000000001,-1.82,2,23.49
2022-05-23 14:15:33.507,6.53299614787102,0.05,-1.81,2,17.37
2022-05-23 14:15:33.621,6.64699673652649,0.0600000000000001,-1.71,3,18.58
2022-05-23 14:15:33.736,6.76199309527874,0.03,-1.94,2,25.19
2022-05-23 14:15:33.849,6.87499791383743,-0.01,-2.1,2,19.8
2022-05-23 14:15:33.965,6.99100010097027,-0.0499999999999999,-2.3,2,22.29
2022-05-23 14:15:34.080,7.10599645972252,-0.07,-2.28,2,22.33
2022-05-23 14:15:34.195,7.22099281847477,-0.07,-2.18,2,22.25
2022-05-23 14:15:34.308,7.33399763703346,-0.07,-2.12,2,22.46
2022-05-23 14:15:34.425,7.45099559426308,-0.0499999999999999,-2.04,2,22.5
2022-05-23 14:15:34.539,7.56499618291855,-0.0399999999999999,-2.02,2,22.89
2022-05-23 14:15:34.653,7.67899677157402,-0.01,-1.83,2,22.36
2022-05-23 14:15:34.768,7.79399313032627,0.04,-1.56,2,21.58
2022-05-23 14:15:34.883,7.90899954736233,0.0800000000000001,-1.49,2,21.94
2022-05-23 14:15:34.998,8.02399590611458,0.11,-1.41,2,21.92
2022-05-23 14:15:35.112,8.13799649477005,0.12,-1.48,2,22.67
2022-05-23 14:15:35.227,8.2529928535223,0.1,-1.65,2,23.76
2022-05-23 14:15:35.341,8.36699344217777,0.09,-1.65,3,23.9
2022-05-23 14:15:35.456,8.48199985921383,0.0800000000000001,-1.67,2,29.31
2022-05-23 14:15:35.571,8.59699621796608,0.0700000000000001,-1.75,3,23.79
2022-05-23 14:15:35.685,8.71099680662155,0.05,-1.8,3,30.61
2022-05-23 14:15:35.799,8.82499739527702,0.01,-2.12,2,31.27
2022-05-23 14:15:35.915,8.94099958240986,-0.0499999999999999,-2.33,3,27.36
2022-05-23 14:15:36.029,9.05500017106533,-0.07,-2.28,2,33.54
2022-05-23 14:15:36.140,9.16599333286285,-0.07,-2.19,2,27.37
2022-05-23 14:15:36.255,9.28099974989891,-0.0599999999999999,-2.1,3,28.68
2022-05-23 14:15:36.370,9.39599610865116,-0.0499999999999999,-2.04,2,33.9
2022-05-23 14:15:36.485,9.51099246740341,-0.0499999999999999,-2.08,2,28.31
2022-05-23 14:15:36.599,9.62499305605888,-0.01,-1.8,2,28.56
2022-05-23 14:15:36.713,9.73899364471436,0.05,-1.47,2,27.64
2022-05-23 14:15:36.828,9.85400006175041,0.12,-1.24,2,27.21
2022-05-23 14:15:36.943,9.96899642050266,0.14,-1.35,2,28.37
2022-05-23 14:15:37.058,10.0839927792549,0.14,-1.44,2,29.01
2022-05-23 14:15:37.172,10.1979933679104,0.12,-1.61,2,30.02
2022-05-23 14:15:37.286,10.3119939565659,0.09,-1.74,3,30.79
2022-05-23 14:15:37.402,10.4279961436987,0.1,-1.55,2,35
2022-05-23 14:15:37.517,10.5429925024509,0.1,-1.58,2,29.54
2022-05-23 14:15:37.631,10.6569930911064,0.0800000000000001,-1.76,2,32
2022-05-23 14:15:37.745,10.7709936797619,0.01,-2.16,3,34.13
2022-05-23 14:15:37.861,10.8869958668947,-0.0199999999999999,-2.11,3,38.75
2022-05-23 14:15:37.975,11.0009964555502,-0.0499999999999999,-2.27,2,38.73
2022-05-23 14:15:38.089,11.1149970442057,-0.09,-2.39,2,34.65
2022-05-23 14:15:38.205,11.2309992313385,-0.12,-2.46,2,36.53
2022-05-23 14:15:38.319,11.344999819994,-0.13,-2.45,3,36.79
2022-05-23 14:15:38.434,11.4599961787462,-0.12,-2.26,2,41.27
2022-05-23 14:15:38.549,11.5749925374985,-0.0299999999999999,-1.69,2,32.85
2022-05-23 14:15:38.663,11.6889931261539,0.04,-1.47,2,34.16
2022-05-23 14:15:38.777,11.8029937148094,0.11,-1.24,2,33.6
2022-05-23 14:15:38.893,11.9189959019423,0.13,-1.4,3,34.99
2022-05-23 14:15:39.006,12.0320007205009,0.11,-1.62,2,41.21
2022-05-23 14:15:39.122,12.14799284935,0.0600000000000001,-1.9,3,36.43
2022-05-23 14:15:39.236,12.2619934380054,0.05,-1.81,3,42.26
2022-05-23 14:15:39.350,12.3759940266609,0.0600000000000001,-1.67,2,40.82
2022-05-23 14:15:39.465,12.491000443697,0.05,-1.82,3,37.16
2022-05-23 14:15:39.580,12.6059968024492,0.01,-2.06,3,44.84
2022-05-23 14:15:39.694,12.7199973911047,-0.0399999999999999,-2.3,2,44.88
2022-05-23 14:15:39.810,12.8359995782375,-0.07,-2.3,2,40.05
2022-05-23 14:15:39.924,12.950000166893,-0.1,-2.38,3,42.16
2022-05-23 14:15:40.039,13.0649965256453,-0.12,-2.43,3,47.71
2022-05-23 14:15:40.154,13.1799928843975,-0.14,-2.53,2,20.54
2022-05-23 14:15:40.269,13.2949993014336,-0.14,-2.37,3,15.1
2022-05-23 14:15:40.382,13.4079940617085,-0.1,-2.12,3,20.8
2022-05-23 14:15:40.498,13.5239962488413,-0.0199999999999999,-1.65,2,17.91
2022-05-23 14:15:40.613,13.6389926075935,0.0800000000000001,-1.23,3,11.88
2022-05-23 14:15:40.727,13.752993196249,0.14,-1.15,2,18.64
2022-05-23 14:15:40.842,13.8679996132851,0.18,-1.09,3,12.49
2022-05-23 14:15:40.957,13.9829959720373,0.16,-1.51,2,21.25
2022-05-23 14:15:41.071,14.0969965606928,0.1,-1.78,2,16.19
2022-05-23 14:15:41.182,14.2079997807741,0.0700000000000001,-1.79,3,17.54
2022-05-23 14:15:41.297,14.3229961395264,0.0700000000000001,-1.7,2,22.39
2022-05-23 14:15:41.411,14.4369967281818,0.05,-1.86,3,17.44
2022-05-23 14:15:41.526,14.5519930869341,0.02,-1.97,3,24.45
2022-05-23 14:15:41.640,14.6659936755896,-0.01,-2.09,2,24.07
2022-05-23 14:15:41.755,14.7810000926256,-0.0599999999999999,-2.32,3,20.52
2022-05-23 14:15:41.870,14.8959964513779,-0.07,-2.22,2,26.44
2022-05-23 14:15:41.986,15.0119986385107,-0.09,-2.33,2,21.27
2022-05-23 14:15:42.099,15.1249933987856,-0.09,-2.23,2,22.34
2022-05-23 14:15:42.214,15.2399998158216,-0.08,-2.19,2,22.67
2022-05-23 14:15:42.328,15.3540004044771,-0.0199999999999999,-1.7,3,20.62
2022-05-23 14:15:42.443,15.4689967632294,0.09,-1.15,2,23.88
2022-05-23 14:15:42.558,15.5839931219816,0.19,-0.84,3,17.12
2022-05-23 14:15:42.673,15.6989995390177,0.26,-0.7,3,23.39
2022-05-23 14:15:42.787,15.8130001276731,0.27,-0.93,2,23.72
2022-05-23 14:15:42.902,15.9279964864254,0.21,-1.42,3,21.27
2022-05-23 14:15:43.016,16.0419970750809,0.17,-1.54,2,27.83
2022-05-23 14:15:43.131,16.1569934338331,0.13,-1.6,3,22.1
2022-05-23 14:15:43.247,16.272995620966,0.13,-1.48,3,28.06
2022-05-23 14:15:43.360,16.3860004395247,0.09,-1.75,3,28.67
2022-05-23 14:15:43.476,16.5019925683737,0.05,-1.96,2,29.8
2022-05-23 14:15:43.590,16.6159931570292,0,-2.1,2,25.68
2022-05-23 14:15:43.706,16.731995344162,-0.0299999999999999,-2.17,2,27.54
2022-05-23 14:15:43.820,16.8459959328175,-0.0399999999999999,-2.14,2,27.65
2022-05-23 14:15:43.934,16.9599965214729,-0.0599999999999999,-2.24,3,28.56
2022-05-23 14:15:44.049,17.0749928802252,-0.0599999999999999,-2.08,3,33.06
2022-05-23 14:15:44.163,17.1889934688807,-0.0399999999999999,-1.97,2,31.87
2022-05-23 14:15:44.278,17.3039998859167,0.02,-1.6,2,25.62
2022-05-23 14:15:44.392,17.4180004745722,0.11,-1.11,3,25.28
2022-05-23 14:15:44.507,17.5329968333244,0.21,-0.8,3,29.66
2022-05-23 14:15:44.622,17.6479931920767,0.23,-0.99,3,30.05
2022-05-23 14:15:44.738,17.7639953792095,0.21,-1.32,3,31.8
2022-05-23 14:15:44.851,17.8770001977682,0.16,-1.58,3,33.1
2022-05-23 14:15:44.966,17.9919965565205,0.13,-1.59,2,33.22
2022-05-23 14:15:45.081,18.1069929152727,0.12,-1.53,2,28.32
2022-05-23 14:15:45.195,18.2209935039282,0.1,-1.66,3,30.69
2022-05-23 14:15:45.310,18.3359999209642,0.0700000000000001,-1.82,2,36.66
2022-05-23 14:15:45.425,18.4509962797165,0.02,-2.06,3,31.75
2022-05-23 14:15:45.540,18.5659926384687,-0.0399999999999999,-2.32,2,39.44
2022-05-23 14:15:45.654,18.6799932271242,-0.07,-2.34,3,33.39
2022-05-23 14:15:45.770,18.795995414257,-0.09,-2.33,3,40.01
2022-05-23 14:15:45.880,18.9059928059578,-0.12,-2.43,2,39.68
2022-05-23 14:15:45.995,19.0209992229939,-0.08,-2.06,2,33.22
2022-05-23 14:15:46.109,19.1349998116493,-0.0299999999999999,-1.81,2,34.14
2022-05-23 14:15:46.224,19.2499961704016,0.04,-1.45,2,33.01
2022-05-23 14:15:46.338,19.363996759057,0.14,-1.05,2,31.78
2022-05-23 14:15:46.453,19.4789931178093,0.2,-0.94,2,32.05
2022-05-23 14:15:46.568,19.5939995348454,0.2,-1.25,2,34.01
2022-05-23 14:15:46.682,19.7080001235008,0.15,-1.64,2,35.86
2022-05-23 14:15:46.797,19.8229964822531,0.0800000000000001,-1.91,2,37.02
2022-05-23 14:15:46.912,19.9379928410053,0.03,-2.02,3,37.56
2022-05-23 14:15:47.027,20.0529992580414,0.02,-1.9,2,42.22
2022-05-23 14:15:47.141,20.1669998466969,0.01,-1.9,2,36.52
2022-05-23 14:15:47.255,20.2810004353523,-0.01,-2.06,2,38.95
2022-05-23 14:15:47.370,20.3959967941046,-0.0499999999999999,-2.25,2,40.06
2022-05-23 14:15:47.485,20.5109931528568,-0.1,-2.49,2,41.42
2022-05-23 14:15:47.600,20.6259995698929,-0.13,-2.55,2,41.81
2022-05-23 14:15:47.715,20.7409959286451,-0.15,-2.5,3,41.89
2022-05-23 14:15:47.829,20.8549965173006,-0.13,-2.33,3,46.53
2022-05-23 14:15:47.944,20.9699928760529,-0.07,-1.91,2,17.57
2022-05-23 14:15:48.059,21.0849992930889,0.01,-1.54,2,11.71
2022-05-23 14:15:48.173,21.1989998817444,0.12,-1.06,2,11.45
2022-05-23 14:15:48.288,21.3139962404966,0.2,-0.82,3,11.16
2022-05-23 14:15:48.402,21.4279968291521,0.24,-0.96,2,17.4
2022-05-23 14:15:48.517,21.5429931879044,0.2,-1.42,2,13.59
2022-05-23 14:15:48.631,21.6569937765598,0.11,-1.94,3,17.2
2022-05-23 14:15:48.747,21.7729959636927,0.03,-2.17,3,23.07
2022-05-23 14:15:48.861,21.8869965523481,-0.0199999999999999,-2.24,2,22.23
2022-05-23 14:15:48.976,22.0019929111004,-0.0199999999999999,-1.95,2,16.2
2022-05-23 14:15:49.090,22.1159934997559,0,-1.85,3,17.73
2022-05-23 14:15:49.205,22.2309999167919,0.01,-1.81,2,23.04
2022-05-23 14:15:49.319,22.3450005054474,-0.01,-2.1,2,18.67
2022-05-23 14:15:49.434,22.4599968641996,-0.07,-2.43,2,21.6
2022-05-23 14:15:49.549,22.5749932229519,-0.11,-2.47,3,21.8
2022-05-23 14:15:49.664,22.6899996399879,-0.14,-2.54,3,27.51
2022-05-23 14:15:49.779,22.8049959987402,-0.15,-2.48,3,26.29
2022-05-23 14:15:49.894,22.9199923574924,-0.1,-2.07,2,24.82
2022-05-23 14:15:50.008,23.0339929461479,-0.0299999999999999,-1.75,2,19.22
2022-05-23 14:15:50.123,23.148999363184,0.0800000000000001,-1.12,2,18.16
2022-05-23 14:15:50.238,23.2639957219362,0.17,-0.97,2,18.52
2022-05-23 14:15:50.352,23.3779963105917,0.2,-1.08,3,19.54
2022-05-23 14:15:50.466,23.4919968992472,0.15,-1.59,2,27.24
2022-05-23 14:15:50.581,23.6069932579994,0.0800000000000001,-1.95,2,22.45
2022-05-23 14:15:50.696,23.7219996750355,0.01,-2.18,2,24.83
2022-05-23 14:15:50.811,23.8369960337877,0,-1.98,2,23.93
2022-05-23 14:15:50.921,23.9469934254885,0,-1.95,3,24.38
2022-05-23 14:15:51.036,24.0619998425245,0.02,-1.76,2,28.83
2022-05-23 14:15:51.150,24.17600043118,0.03,-1.81,2,23.46
2022-05-23 14:15:51.265,24.2909967899323,0,-2.02,2,26.09
2022-05-23 14:15:51.380,24.4059931486845,-0.0299999999999999,-2.18,2,26.98
2022-05-23 14:15:51.494,24.51999373734,-0.0599999999999999,-2.24,2,27.49
2022-05-23 14:15:51.610,24.6359959244728,-0.09,-2.41,3,28.61
2022-05-23 14:15:51.724,24.7499965131283,-0.08,-2.15,2,32.53
2022-05-23 14:15:51.839,24.8649928718805,-0.0299999999999999,-1.77,2,25.11
2022-05-23 14:15:51.954,24.9799992889166,0.04,-1.47,3,25.77
2022-05-23 14:15:52.068,25.0939998775721,0.13,-1.12,3,29.73
2022-05-23 14:15:52.182,25.2080004662275,0.2,-0.89,2,28.1
2022-05-23 14:15:52.298,25.3239925950766,0.22,-1.06,3,24.6
2022-05-23 14:15:52.412,25.437993183732,0.16,-1.6,2,33.69
2022-05-23 14:15:52.527,25.5529996007681,0.12,-1.73,3,27.71
2022-05-23 14:15:52.641,25.6670001894236,0.0600000000000001,-1.99,2,35.52
2022-05-23 14:15:52.757,25.7829923182726,0.03,-1.92,2,28.98
2022-05-23 14:15:52.870,25.8959971368313,0.05,-1.69,2,29.57
2022-05-23 14:15:52.985,26.0109934955835,0.05,-1.77,2,30.62
2022-05-23 14:15:53.100,26.1259999126196,0.04,-1.84,2,31.19
2022-05-23 14:15:53.214,26.2400005012751,0,-2.11,2,32.81
2022-05-23 14:15:53.328,26.3540010899305,-0.0399999999999999,-2.22,2,33.42
2022-05-23 14:15:53.445,26.4709990471601,-0.08,-2.38,3,34.42
2022-05-23 14:15:53.559,26.5849996358156,-0.07,-2.14,2,38.43
2022-05-23 14:15:53.674,26.6999959945679,-0.0499999999999999,-2.01,2,32.26
2022-05-23 14:15:53.788,26.8139965832233,0.02,-1.54,3,31.75
2022-05-23 14:15:53.903,26.9289929419756,0.1,-1.22,2,36.06
2022-05-23 14:15:54.018,27.0439993590117,0.17,-1.04,2,29.67
2022-05-23 14:15:54.132,27.1579999476671,0.24,-0.82,2,30.39
2022-05-23 14:15:54.247,27.2729963064194,0.23,-1.16,3,32.68
2022-05-23 14:15:54.363,27.3889984935522,0.21,-1.28,2,38.11
2022-05-23 14:15:54.476,27.5019932538271,0.15,-1.63,2,33.78
2022-05-23 14:15:54.591,27.6169996708632,0.12,-1.67,2,35.14
2022-05-23 14:15:54.705,27.7310002595186,0.1,-1.66,2,35.4
2022-05-23 14:15:54.820,27.8459966182709,0.1,-1.56,3,35.22
2022-05-23 14:15:54.935,27.9609929770231,0.11,-1.53,3,40.56
2022-05-23 14:15:55.050,28.0759993940592,0.0800000000000001,-1.74,2,40.75
2022-05-23 14:15:55.165,28.1909957528114,0.05,-1.87,3,36.57
2022-05-23 14:15:55.279,28.3049963414669,0,-2.18,2,44.6
2022-05-23 14:15:55.393,28.4189969301224,-0.0399999999999999,-2.21,2,38.49
2022-05-23 14:15:55.508,28.5339932888746,-0.0599999999999999,-2.21,2,40.18
2022-05-23 14:15:55.623,28.6489997059107,-0.0299999999999999,-1.91,2,39.06
2022-05-23 14:15:55.738,28.7639960646629,0.04,-1.45,2,37.48
2022-05-23 14:15:55.853,28.8789924234152,0.13,-1.08,2,36.58
2022-05-23 14:15:55.967,28.9929930120707,0.19,-1,3,36.94
2022-05-23 14:15:56.078,29.103996232152,0.23,-0.97,2,42.17
2022-05-23 14:15:56.192,29.2179968208075,0.21,-1.27,3,37.75
2022-05-23 14:15:56.307,29.3329931795597,0.19,-1.33,3,44.26
2022-05-23 14:15:56.422,29.4479995965958,0.16,-1.49,3,44.09
2022-05-23 14:15:56.535,29.5609943568707,0.15,-1.47,2,44.17
2022-05-23 14:15:56.651,29.6769965440035,0.14,-1.45,2,39.52
2022-05-23 14:15:56.765,29.790997132659,0.16,-1.31,3,40.47
2022-05-23 14:15:56.881,29.9069993197918,0.15,-1.41,2,46.44
2022-05-23 14:15:56.995,30.0209999084473,0.12,-1.69,2,12.66
2022-05-23 14:15:57.110,30.1359962671995,0.05,-2.01,2,15.58
2022-05-23 14:15:57.224,30.249996855855,-0.01,-2.24,3,16.63
2022-05-23 14:15:57.338,30.3639974445105,-0.0499999999999999,-2.27,3,21.89
2022-05-23 14:15:57.454,30.4799996316433,-0.0599999999999999,-2.2,2,20.68
2022-05-23 14:15:57.568,30.5940002202988,-0.0199999999999999,-1.85,2,14.48
2022-05-23 14:15:57.684,30.7099923491478,0.0600000000000001,-1.38,3,14.29
2022-05-23 14:15:57.798,30.8239929378033,0.14,-1.07,3,18.65
2022-05-23 14:15:57.913,30.9389993548393,0.2,-0.95,2,17.53
2022-05-23 14:15:58.027,31.0529999434948,0.22,-1.07,2,13.6
2022-05-23 14:15:58.142,31.167996302247,0.21,-1.27,3,16.05
2022-05-23 14:15:58.256,31.2819968909025,0.14,-1.72,2,23.38
2022-05-23 14:15:58.371,31.3969932496548,0.12,-1.59,2,16.25
2022-05-23 14:15:58.486,31.5119996666908,0.1,-1.67,2,18.45
2022-05-23 14:15:58.600,31.6260002553463,0.09,-1.64,2,18.53
2022-05-23 14:15:58.715,31.7409966140985,0.09,-1.61,3,18.75
2022-05-23 14:15:58.830,31.8559929728508,0.0800000000000001,-1.66,2,24.38
2022-05-23 14:15:58.946,31.9719951599836,0.04,-1.97,2,19.97
2022-05-23 14:15:59.060,32.0859957486391,-0.0199999999999999,-2.27,3,22.75
2022-05-23 14:15:59.173,32.1990005671978,-0.1,-2.64,2,29.57
2022-05-23 14:15:59.289,32.3149926960468,-0.12,-2.44,2,22.32
2022-05-23 14:15:59.404,32.4299991130829,-0.1,-2.19,3,23.06
2022-05-23 14:15:59.517,32.5429938733578,-0.0299999999999999,-1.74,2,26.49
2022-05-23 14:15:59.633,32.6589960604906,0.05,-1.37,3,19.39
2022-05-23 14:15:59.747,32.7729966491461,0.14,-1.05,2,24.85
2022-05-23 14:15:59.863,32.8889988362789,0.19,-1.07,2,19.43
2022-05-23 14:15:59.977,33.0029994249344,0.21,-1.1,2,21.16
2022-05-23 14:16:00.092,33.1179957836866,0.18,-1.4,3,22.89
2022-05-23 14:16:00.207,33.2329921424389,0.15,-1.53,3,28.47
2022-05-23 14:16:00.320,33.3459969609976,0.11,-1.71,2,28.31
2022-05-23 14:16:00.435,33.4609933197498,0.09,-1.68,3,23.36
2022-05-23 14:16:00.550,33.5759997367859,0.0800000000000001,-1.74,2,30.32
2022-05-23 14:16:00.665,33.6909960955381,0.0700000000000001,-1.74,2,24.38
2022-05-23 14:16:00.780,33.8059924542904,0.03,-2.02,2,27.42
2022-05-23 14:16:00.895,33.9209988713264,-0.0299999999999999,-2.31,9,28.88
2022-05-23 14:16:01.009,34.0349994599819,-0.09,-2.49,2,64.81
2022-05-23 14:16:01.124,34.1499958187342,-0.16,-2.82,2,9.05
2022-05-23 14:16:01.235,34.2609990388155,-0.17,-2.57,2,16.99
2022-05-23 14:16:01.349,34.374999627471,-0.13,-2.22,2,16
2022-05-23 14:16:01.464,34.4899959862232,-0.07,-1.87,2,15.05
2022-05-23 14:16:01.577,34.6030008047819,0,-1.61,3,14.6
2022-05-23 14:16:01.693,34.7189929336309,0.0800000000000001,-1.32,3,18.78
2022-05-23 14:16:01.807,34.8329935222864,0.11,-1.41,2,18.72
2022-05-23 14:16:01.922,34.9479999393225,0.12,-1.48,2,14.37
2022-05-23 14:16:02.037,35.0629962980747,0.11,-1.57,2,16.35
2022-05-23 14:16:02.152,35.177992656827,0.0600000000000001,-1.89,3,18.18
2022-05-23 14:16:02.266,35.2919932454824,0.03,-2,3,23.63
2022-05-23 14:16:02.381,35.4069996625185,0,-2.04,2,22.84
2022-05-23 14:16:02.496,35.5219960212708,-0.0199999999999999,-2.08,2,18.45
2022-05-23 14:16:02.610,35.6359966099262,-0.0299999999999999,-2.1,3,20.18
2022-05-23 14:16:02.725,35.7509929686785,-0.07,-2.34,3,26.75
2022-05-23 14:16:02.839,35.8649935573339,-0.1,-2.38,3,25.81
2022-05-23 14:16:02.955,35.9809957444668,-0.14,-2.61,2,27.38
2022-05-23 14:16:03.069,36.0949963331223,-0.16,-2.6,2,22.58
2022-05-23 14:16:03.183,36.2089969217777,-0.15,-2.4,3,23.3
2022-05-23 14:16:03.298,36.32399328053,-0.11,-2.11,3,27.53
2022-05-23 14:16:03.413,36.438999697566,-0.0499999999999999,-1.82,2,25.6
2022-05-23 14:16:03.528,36.5539960563183,0.01,-1.63,2,20.48
2022-05-23 14:16:03.642,36.6679966449738,0.0700000000000001,-1.46,2,21.51
2022-05-23 14:16:03.757,36.782993003726,0.0800000000000001,-1.55,3,22.5
2022-05-23 14:16:03.872,36.8979994207621,0.0800000000000001,-1.64,2,28.16
2022-05-23 14:16:03.987,37.0129957795143,0.05,-1.93,2,23.61
2022-05-23 14:16:04.101,37.1269963681698,0.02,-1.93,3,24.9
2022-05-23 14:16:04.215,37.2409969568253,0,-2.04,2,30.8
2022-05-23 14:16:04.330,37.3559933155775,0.01,-1.87,3,23.96
2022-05-23 14:16:04.446,37.4719955027103,-0.0199999999999999,-2.12,2,32.11
2022-05-23 14:16:04.560,37.5859960913658,-0.0399999999999999,-2.15,2,26.07
2022-05-23 14:16:04.675,37.7009924501181,-0.09,-2.5,2,29.47
2022-05-23 14:16:04.789,37.8149930387735,-0.15,-2.72,3,30.56
2022-05-23 14:16:04.904,37.9299994558096,-0.19,-2.77,2,35.92
2022-05-23 14:16:05.020,38.0459915846586,-0.2,-2.68,3,29.65
2022-05-23 14:16:05.133,38.1589964032173,-0.17,-2.41,3,35.16
2022-05-23 14:16:05.248,38.2739927619696,-0.1,-1.92,2,32.24
2022-05-23 14:16:05.363,38.3889991790056,-0.01,-1.59,3,26.68
2022-05-23 14:16:05.477,38.5029997676611,0.0700000000000001,-1.36,3,32.61
2022-05-23 14:16:05.591,38.6170003563166,0.12,-1.27,2,31.53
2022-05-23 14:16:05.706,38.7319967150688,0.14,-1.38,2,27.61
2022-05-23 14:16:05.821,38.8469930738211,0.09,-1.78,2,31.1
2022-05-23 14:16:05.935,38.9609936624765,0.04,-2,3,31.98
2022-05-23 14:16:06.046,39.0719968825579,0,-2.11,3,37.66
2022-05-23 14:16:06.161,39.1869932413101,-0.0499999999999999,-2.34,3,37.78
2022-05-23 14:16:06.275,39.3009938299656,-0.07,-2.24,3,37.48
2022-05-23 14:16:06.391,39.4169960170984,-0.09,-2.36,3,38.71
2022-05-23 14:16:06.506,39.5319923758507,-0.11,-2.39,2,39.17
2022-05-23 14:16:06.619,39.6449971944094,-0.16,-2.68,2,36.1
2022-05-23 14:16:06.734,39.7599935531616,-0.21,-2.86,3,38.32
2022-05-23 14:16:06.849,39.8749999701977,-0.22,-2.77,3,43.1
2022-05-23 14:16:06.964,39.9899963289499,-0.21,-2.59,2,41.52
2022-05-23 14:16:07.080,40.1059985160828,-0.19,-2.49,3,36.77
2022-05-23 14:16:07.193,40.2189932763577,-0.11,-2,2,41.18
2022-05-23 14:16:07.307,40.3329938650131,-0.0199999999999999,-1.6,3,33.99
2022-05-23 14:16:07.423,40.448996052146,0.04,-1.52,2,40.74
2022-05-23 14:16:07.537,40.5629966408014,0.0600000000000001,-1.65,2,35.57
2022-05-23 14:16:07.652,40.6779929995537,0.0800000000000001,-1.54,2,36.55
2022-05-23 14:16:07.767,40.7929994165897,0.0600000000000001,-1.84,2,38.48
2022-05-23 14:16:07.881,40.9070000052452,0.02,-2,2,39.26
2022-05-23 14:16:07.996,41.0219963639975,-0.0499999999999999,-2.39,2,41.34
2022-05-23 14:16:08.111,41.1369927227497,-0.07,-2.26,2,40.58
2022-05-23 14:16:08.226,41.2519991397858,-0.08,-2.28,2,41.26
2022-05-23 14:16:08.340,41.3659997284412,-0.08,-2.16,2,41.04
2022-05-23 14:16:08.455,41.4809960871935,-0.1,-2.35,2,42.52
2022-05-23 14:16:08.569,41.594996675849,-0.12,-2.45,2,43.18
2022-05-23 14:16:08.684,41.7099930346012,-0.15,-2.59,3,44.16
2022-05-23 14:16:08.800,41.825995221734,-0.17,-2.61,3,49.49
2022-05-23 14:16:08.914,41.9399958103895,-0.16,-2.44,2,19.87
2022-05-23 14:16:09.028,42.053996399045,-0.12,-2.16,2,14.18
2022-05-23 14:16:09.143,42.1689927577972,-0.08,-2.03,2,15.6
2022-05-23 14:16:09.258,42.2839991748333,0.02,-1.39,3,12.93
2022-05-23 14:16:09.372,42.3979997634888,0.09,-1.33,3,18.79
2022-05-23 14:16:09.488,42.5139918923378,0.12,-1.37,2,18.16